Time,TemperatureF,DewpointF,PressureIn,WindDirection,WindDirectionDegrees,WindSpeedMPH,WindSpeedGustMPH,Humidity,HourlyPrecipIn,Conditions,Clouds,dailyrainin,SolarRadiationWatts/m^2,SoftwareType,DateUTC
2013-04-21 00:01:00,57.3,44.4,29.92,SE,126,8.0,22.0,62,0.00,,---,0.00,0.00,VWS V14.00,2013-04-21 05:01:00,
2013-04-21 00:06:00,57.1,44.6,29.91,SE,132,17.0,20.0,63,0.00,,---,0.00,0.00,VWS V14.00,2013-04-21 05:06:00,
2013-04-21 00:11:00,56.9,44.9,29.92,ESE,109,9.0,20.0,64,0.00,,---,0.00,0.00,VWS V14.00,2013-04-21 05:11:00,
2013-04-21 00:16:00,56.7,44.7,29.92,SE,136,8.0,19.0,64,0.00,,---,0.00,0.00,VWS V14.00,2013-04-21 05:16:00,
2013-04-21 00:21:00,56.5,44.9,29.92,SE,125,7.0,19.0,65,0.00,,---,0.00,0.00,VWS V14.00,2013-04-21 05:21:00,
2013-04-21 00:26:00,56.3,45.1,29.92,ESE,105,12.0,16.0,66,0.00,,---,0.00,0.00,VWS V14.00,2013-04-21 05:26:00,
2013-04-21 00:31:00,56.1,45.3,29.92,SE,131,8.0,18.0,67,0.00,,---,0.00,0.00,VWS V14.00,2013-04-21 05:31:00,
2013-04-21 00:36:00,55.9,45.1,29.92,ESE,118,8.0,18.0,67,0.00,,---,0.00,0.00,VWS V14.00,2013-04-21 05:36:00,
2013-04-21 00:41:00,55.7,45.3,29.92,SE,137,17.0,18.0,68,0.00,,---,0.00,0.00,VWS V14.00,2013-04-21 05:41:00,
2013-04-21 00:46:00,55.5,45.5,29.92,ESE,123,5.0,15.0,69,0.00,,---,0.00,0.00,VWS V14.00,2013-04-21 05:46:00,
2013-04-21 00:51:00,55.3,45.3,29.92,ESE,120,5.0,15.0,69,0.00,,---,0.00,0.00,VWS V14.00,2013-04-21 05:51:00,
2013-04-21 00:56:00,55.1,45.5,29.92,SE,128,7.0,14.0,70,0.00,,---,0.00,0.00,VWS V14.00,2013-04-21 05:56:00,
2013-04-21 01:01:00,55.0,45.4,29.93,SE,132,11.0,17.0,70,0.00,,---,0.00,0.00,VWS V14.00,2013-04-21 06:01:00,
2013-04-21 01:06:00,54.8,45.6,29.93,SE,135,7.0,18.0,71,0.00,,---,0.00,0.00,VWS V14.00,2013-04-21 06:06:00,
2013-04-21 01:11:00,54.7,45.5,29.93,SE,137,5.0,18.0,71,0.00,,---,0.00,0.00,VWS V14.00,2013-04-21 06:11:00,
2013-04-21 01:16:00,54.6,45.8,29.93,SE,139,10.0,19.0,72,0.00,,---,0.00,0.00,VWS V14.00,2013-04-21 06:16:00,
2013-04-21 01:21:00,54.4,45.6,29.94,SE,138,11.0,19.0,72,0.00,,---,0.00,0.00,VWS V14.00,2013-04-21 06:21:00,
2013-04-21 01:26:00,54.3,45.5,29.94,ESE,118,8.0,11.0,72,0.00,,---,0.00,0.00,VWS V14.00,2013-04-21 06:26:00,
2013-04-21 01:31:00,54.1,45.7,29.94,SE,132,9.0,15.0,73,0.00,,---,0.00,0.00,VWS V14.00,2013-04-21 06:31:00,
2013-04-21 01:36:00,54.0,45.5,29.94,SE,131,6.0,11.0,73,0.00,,---,0.00,0.00,VWS V14.00,2013-04-21 06:36:00,
2013-04-21 01:41:00,53.9,45.8,29.94,SE,127,8.0,12.0,74,0.00,,---,0.00,0.00,VWS V14.00,2013-04-21 06:41:00,
2013-04-21 01:46:00,53.7,45.6,29.94,ESE,117,5.0,15.0,74,0.00,,---,0.00,0.00,VWS V14.00,2013-04-21 06:46:00,
2013-04-21 01:51:00,53.6,45.5,29.93,SE,129,2.0,15.0,74,0.00,,---,0.00,0.00,VWS V14.00,2013-04-21 06:51:00,
2013-04-21 01:56:00,53.5,45.8,29.94,SE,130,6.0,12.0,75,0.00,,---,0.00,0.00,VWS V14.00,2013-04-21 06:56:00,
2013-04-21 02:01:00,53.3,45.9,29.93,ESE,115,4.0,14.0,76,0.00,,---,0.00,0.00,VWS V14.00,2013-04-21 07:01:00,
2013-04-21 02:06:00,53.2,45.8,29.94,SE,142,6.0,14.0,76,0.00,,---,0.00,0.00,VWS V14.00,2013-04-21 07:06:00,
2013-04-21 02:11:00,53.1,45.8,29.94,SE,131,5.0,14.0,76,0.00,,---,0.00,0.00,VWS V14.00,2013-04-21 07:11:00,
2013-04-21 02:16:00,53.0,46.0,29.94,SE,125,5.0,11.0,77,0.00,,---,0.00,0.00,VWS V14.00,2013-04-21 07:16:00,
2013-04-21 02:21:00,52.9,45.9,29.94,SE,126,5.0,11.0,77,0.00,,---,0.00,0.00,VWS V14.00,2013-04-21 07:21:00,
2013-04-21 02:26:00,52.8,45.8,29.94,SE,128,2.0,11.0,77,0.00,,---,0.00,0.00,VWS V14.00,2013-04-21 07:26:00,
2013-04-21 02:31:00,52.8,46.1,29.95,SE,127,9.0,13.0,78,0.00,,---,0.00,0.00,VWS V14.00,2013-04-21 07:31:00,
2013-04-21 02:36:00,52.9,46.6,29.94,SE,140,6.0,17.0,79,0.00,,---,0.00,0.00,VWS V14.00,2013-04-21 07:36:00,
2013-04-21 02:41:00,53.0,46.3,29.93,SE,145,6.0,17.0,78,0.00,,---,0.00,0.00,VWS V14.00,2013-04-21 07:41:00,
2013-04-21 02:46:00,53.0,46.7,29.93,SE,126,5.0,14.0,79,0.00,,---,0.00,0.00,VWS V14.00,2013-04-21 07:46:00,
2013-04-21 02:51:00,53.1,46.8,29.93,ESE,116,8.0,14.0,79,0.00,,---,0.00,0.00,VWS V14.00,2013-04-21 07:51:00,
2013-04-21 02:56:00,53.2,46.9,29.93,SSE,152,8.0,18.0,79,0.00,,---,0.00,0.00,VWS V14.00,2013-04-21 07:56:00,
2013-04-21 03:01:00,53.2,46.9,29.92,ESE,120,5.0,18.0,79,0.00,,---,0.00,0.00,VWS V14.00,2013-04-21 08:01:00,
2013-04-21 03:06:00,53.2,46.9,29.92,SE,136,4.0,19.0,79,0.00,,---,0.00,0.00,VWS V14.00,2013-04-21 08:06:00,
2013-04-21 03:11:00,53.1,46.8,29.92,SE,134,12.0,19.0,79,0.00,,---,0.00,0.00,VWS V14.00,2013-04-21 08:11:00,
2013-04-21 03:16:00,53.1,46.8,29.91,SSE,151,7.0,13.0,79,0.00,,---,0.00,0.00,VWS V14.00,2013-04-21 08:16:00,
2013-04-21 03:21:00,53.0,47.0,29.91,SE,146,4.0,13.0,80,0.00,,---,0.00,0.00,VWS V14.00,2013-04-21 08:21:00,
2013-04-21 03:26:00,53.0,47.0,29.91,SSE,165,5.0,9.0,80,0.00,,---,0.00,0.00,VWS V14.00,2013-04-21 08:26:00,
2013-04-21 03:31:00,53.0,47.0,29.92,SE,142,5.0,10.0,80,0.00,,---,0.00,0.00,VWS V14.00,2013-04-21 08:31:00,
2013-04-21 03:36:00,53.0,47.0,29.91,SE,132,5.0,11.0,80,0.00,,---,0.00,0.00,VWS V14.00,2013-04-21 08:36:00,
2013-04-21 03:41:00,53.0,47.0,29.92,ESE,115,8.0,11.0,80,0.00,,---,0.00,0.00,VWS V14.00,2013-04-21 08:41:00,
2013-04-21 03:46:00,53.0,47.0,29.92,SSE,151,4.0,11.0,80,0.00,,---,0.00,0.00,VWS V14.00,2013-04-21 08:46:00,
2013-04-21 03:51:00,53.0,47.3,29.92,SE,142,12.0,14.0,81,0.00,,---,0.00,0.00,VWS V14.00,2013-04-21 08:51:00,
2013-04-21 03:56:00,53.0,47.3,29.92,SE,132,7.0,11.0,81,0.00,,---,0.00,0.00,VWS V14.00,2013-04-21 08:56:00,
2013-04-21 04:01:00,53.2,47.2,29.93,SE,135,6.0,11.0,80,0.00,,---,0.00,0.00,VWS V14.00,2013-04-21 09:01:00,
2013-04-21 04:06:00,53.2,47.2,29.93,SE,144,9.0,10.0,80,0.00,,---,0.00,0.00,VWS V14.00,2013-04-21 09:06:00,
2013-04-21 04:11:00,53.2,47.2,29.93,SE,134,5.0,12.0,80,0.00,,---,0.00,0.00,VWS V14.00,2013-04-21 09:11:00,
2013-04-21 04:16:00,53.3,47.3,29.92,SE,142,6.0,10.0,80,0.00,,---,0.00,0.00,VWS V14.00,2013-04-21 09:16:00,
2013-04-21 04:21:00,53.3,47.3,29.92,SSE,151,8.0,14.0,80,0.00,,---,0.00,0.00,VWS V14.00,2013-04-21 09:21:00,
2013-04-21 04:26:00,53.4,47.4,29.93,SE,126,7.0,13.0,80,0.00,,---,0.00,0.00,VWS V14.00,2013-04-21 09:26:00,
2013-04-21 04:31:00,53.4,47.4,29.93,ESE,109,6.0,13.0,80,0.00,,---,0.00,0.00,VWS V14.00,2013-04-21 09:31:00,
2013-04-21 04:36:00,53.4,47.4,29.92,ESE,113,6.0,8.0,80,0.00,,---,0.00,0.00,VWS V14.00,2013-04-21 09:36:00,
2013-04-21 04:41:00,53.4,47.4,29.93,SE,132,6.0,11.0,80,0.00,,---,0.00,0.00,VWS V14.00,2013-04-21 09:41:00,
2013-04-21 04:46:00,53.4,47.4,29.92,SE,125,7.0,11.0,80,0.00,,---,0.00,0.00,VWS V14.00,2013-04-21 09:46:00,
2013-04-21 04:51:00,53.4,47.4,29.93,ESE,123,6.0,11.0,80,0.00,,---,0.00,0.00,VWS V14.00,2013-04-21 09:51:00,
2013-04-21 04:56:00,53.3,47.3,29.93,SE,126,8.0,14.0,80,0.00,,---,0.00,0.00,VWS V14.00,2013-04-21 09:56:00,
2013-04-21 05:01:00,53.2,47.2,29.93,SE,126,6.0,14.0,80,0.00,,---,0.00,0.00,VWS V14.00,2013-04-21 10:01:00,
2013-04-21 05:06:00,53.2,47.2,29.93,SE,124,6.0,9.0,80,0.00,,---,0.00,0.00,VWS V14.00,2013-04-21 10:06:00,
2013-04-21 05:11:00,53.1,47.1,29.93,SE,125,6.0,9.0,80,0.00,,---,0.00,0.00,VWS V14.00,2013-04-21 10:11:00,
2013-04-21 05:16:00,53.1,47.4,29.93,SE,144,1.0,12.0,81,0.00,,---,0.00,0.00,VWS V14.00,2013-04-21 10:16:00,
2013-04-21 05:21:00,53.2,47.5,29.93,SE,143,4.0,12.0,81,0.00,,---,0.00,0.00,VWS V14.00,2013-04-21 10:21:00,
2013-04-21 05:26:00,53.2,47.5,29.92,SE,140,5.0,12.0,81,0.00,,---,0.00,0.00,VWS V14.00,2013-04-21 10:26:00,
2013-04-21 05:31:00,53.2,47.5,29.92,SE,146,14.0,14.0,81,0.00,,---,0.00,0.00,VWS V14.00,2013-04-21 10:31:00,
2013-04-21 05:36:00,53.2,47.5,29.92,ESE,121,6.0,11.0,81,0.00,,---,0.00,0.00,VWS V14.00,2013-04-21 10:36:00,
2013-04-21 05:41:00,53.2,47.5,29.92,ESE,117,7.0,11.0,81,0.00,,---,0.00,0.00,VWS V14.00,2013-04-21 10:41:00,
2013-04-21 05:46:00,53.2,47.5,29.92,SE,128,5.0,11.0,81,0.00,,---,0.00,0.00,VWS V14.00,2013-04-21 10:46:00,
2013-04-21 05:51:00,53.2,47.5,29.92,ESE,120,4.0,12.0,81,0.00,,---,0.00,0.00,VWS V14.00,2013-04-21 10:51:00,
2013-04-21 05:56:00,53.2,47.5,29.92,SE,128,5.0,11.0,81,0.00,,---,0.00,0.00,VWS V14.00,2013-04-21 10:56:00,
2013-04-21 06:01:00,53.2,47.5,29.92,SE,134,6.0,11.0,81,0.00,,---,0.00,0.00,VWS V14.00,2013-04-21 11:01:00,
2013-04-21 06:06:00,53.2,47.5,29.92,SE,132,4.0,8.0,81,0.00,,---,0.00,0.00,VWS V14.00,2013-04-21 11:06:00,
2013-04-21 06:11:00,53.3,47.6,29.92,ESE,114,6.0,11.0,81,0.00,,---,0.00,0.00,VWS V14.00,2013-04-21 11:11:00,
2013-04-21 06:16:00,53.3,48.0,29.92,ESE,102,8.0,11.0,82,0.00,,---,0.00,0.00,VWS V14.00,2013-04-21 11:16:00,
2013-04-21 06:21:00,53.3,48.0,29.93,SE,139,6.0,13.0,82,0.00,,---,0.00,0.00,VWS V14.00,2013-04-21 11:21:00,
2013-04-21 06:26:00,53.3,48.0,29.93,SE,128,5.0,10.0,82,0.00,,---,0.00,0.00,VWS V14.00,2013-04-21 11:26:00,
2013-04-21 06:31:00,53.3,48.0,29.92,SE,143,2.0,13.0,82,0.00,,---,0.00,0.00,VWS V14.00,2013-04-21 11:31:00,
2013-04-21 06:36:00,53.2,47.9,29.92,ESE,107,9.0,12.0,82,0.00,,---,0.00,0.00,VWS V14.00,2013-04-21 11:36:00,
2013-04-21 06:41:00,53.1,47.8,29.93,ESE,111,7.0,13.0,82,0.00,,---,0.00,0.00,VWS V14.00,2013-04-21 11:41:00,
2013-04-21 06:46:00,53.0,47.7,29.93,SE,142,6.0,14.0,82,0.00,,---,0.00,0.00,VWS V14.00,2013-04-21 11:46:00,
2013-04-21 06:51:00,53.0,47.7,29.93,SE,134,1.0,14.0,82,0.00,,---,0.00,0.00,VWS V14.00,2013-04-21 11:51:00,
2013-04-21 06:56:00,52.9,47.9,29.93,SE,125,5.0,12.0,83,0.00,,---,0.00,0.00,VWS V14.00,2013-04-21 11:56:00,
2013-04-21 07:01:00,52.9,47.9,29.94,SE,137,4.0,12.0,83,0.00,,---,0.00,0.00,VWS V14.00,2013-04-21 12:01:00,
2013-04-21 07:06:00,52.9,47.9,29.93,SE,131,8.0,10.0,83,0.00,,---,0.00,5.00,VWS V14.00,2013-04-21 12:06:00,
2013-04-21 07:11:00,52.9,47.9,29.93,SE,131,7.0,11.0,83,0.00,,---,0.00,7.00,VWS V14.00,2013-04-21 12:11:00,
2013-04-21 07:16:00,53.0,48.3,29.93,SE,133,6.0,11.0,84,0.00,,---,0.00,9.00,VWS V14.00,2013-04-21 12:16:00,
2013-04-21 07:21:00,53.1,48.4,29.93,SE,144,5.0,11.0,84,0.00,,---,0.00,12.00,VWS V14.00,2013-04-21 12:21:00,
2013-04-21 07:26:00,53.2,48.5,29.93,SE,132,8.0,12.0,84,0.00,,---,0.00,16.00,VWS V14.00,2013-04-21 12:26:00,
2013-04-21 07:31:00,53.3,48.6,29.93,SE,144,4.0,12.0,84,0.00,,---,0.00,21.00,VWS V14.00,2013-04-21 12:31:00,
2013-04-21 07:36:00,53.4,48.7,29.94,SE,146,5.0,10.0,84,0.00,,---,0.00,23.00,VWS V14.00,2013-04-21 12:36:00,
2013-04-21 07:41:00,53.5,48.8,29.94,SE,143,8.0,10.0,84,0.00,,---,0.00,28.00,VWS V14.00,2013-04-21 12:41:00,
2013-04-21 07:45:00,53.6,48.9,29.95,SE,134,2.0,8.0,84,0.00,,---,0.00,35.00,VWS V14.00,2013-04-21 12:45:00,
2013-04-21 07:50:00,53.7,49.0,29.96,SE,146,5.0,9.0,84,0.00,,---,0.00,40.00,VWS V14.00,2013-04-21 12:50:00,
2013-04-21 07:56:00,53.9,49.2,29.96,SE,143,1.0,10.0,84,0.00,,---,0.00,44.00,VWS V14.00,2013-04-21 12:56:00,
2013-04-21 08:00:00,54.0,49.3,29.97,SE,145,4.0,10.0,84,0.00,,---,0.00,53.00,VWS V14.00,2013-04-21 13:00:00,
2013-04-21 08:05:00,54.1,49.4,29.97,SE,126,7.0,12.0,84,0.00,,---,0.00,74.00,VWS V14.00,2013-04-21 13:05:00,
2013-04-21 08:10:00,54.2,49.5,29.97,SE,142,11.0,13.0,84,0.00,,---,0.00,62.00,VWS V14.00,2013-04-21 13:10:00,
2013-04-21 08:15:00,54.4,49.7,29.97,SSE,148,6.0,9.0,84,0.00,,---,0.00,86.00,VWS V14.00,2013-04-21 13:15:00,
2013-04-21 08:20:00,54.6,49.9,29.97,SE,128,7.0,11.0,84,0.00,,---,0.00,70.00,VWS V14.00,2013-04-21 13:20:00,
2013-04-21 08:25:00,54.8,50.1,29.98,SE,144,4.0,9.0,84,0.00,,---,0.00,84.00,VWS V14.00,2013-04-21 13:25:00,
2013-04-21 08:30:00,54.9,49.8,29.98,SE,144,0.0,9.0,83,0.00,,---,0.00,97.00,VWS V14.00,2013-04-21 13:30:00,
2013-04-21 08:35:00,55.1,50.0,29.98,SSE,163,7.0,11.0,83,0.00,,---,0.00,67.00,VWS V14.00,2013-04-21 13:35:00,
2013-04-21 08:40:00,55.3,50.2,29.99,ESE,114,8.0,11.0,83,0.00,,---,0.00,102.00,VWS V14.00,2013-04-21 13:40:00,
2013-04-21 08:45:00,55.4,50.3,29.99,ESE,117,2.0,9.0,83,0.00,,---,0.00,72.00,VWS V14.00,2013-04-21 13:45:00,
2013-04-21 08:50:00,55.4,50.3,29.99,SE,125,6.0,9.0,83,0.00,,---,0.00,111.00,VWS V14.00,2013-04-21 13:50:00,
2013-04-21 08:55:00,55.6,50.5,29.98,SE,125,7.0,11.0,83,0.00,,---,0.00,179.00,VWS V14.00,2013-04-21 13:55:00,
2013-04-21 09:00:00,55.7,50.3,29.98,SE,126,9.0,11.0,82,0.00,,---,0.00,123.00,VWS V14.00,2013-04-21 14:00:00,
2013-04-21 09:05:00,56.0,50.6,29.99,ESE,121,4.0,11.0,82,0.00,,---,0.00,172.00,VWS V14.00,2013-04-21 14:05:00,
2013-04-21 09:10:00,56.3,50.9,29.98,SE,136,6.0,12.0,82,0.00,,---,0.00,225.00,VWS V14.00,2013-04-21 14:10:00,
2013-04-21 09:15:00,56.7,50.9,29.99,SE,131,7.0,12.0,81,0.00,,---,0.00,288.00,VWS V14.00,2013-04-21 14:15:00,
2013-04-21 09:20:00,57.2,51.1,29.99,ESE,123,8.0,13.0,80,0.00,,---,0.00,192.00,VWS V14.00,2013-04-21 14:20:00,
2013-04-21 09:25:00,57.3,51.2,29.99,SE,140,5.0,13.0,80,0.00,,---,0.00,185.00,VWS V14.00,2013-04-21 14:25:00,
2013-04-21 09:30:00,57.5,51.0,29.99,SE,128,11.0,13.0,79,0.00,,---,0.00,151.00,VWS V14.00,2013-04-21 14:30:00,
2013-04-21 09:35:00,57.6,51.1,30.00,SE,146,1.0,11.0,79,0.00,,---,0.00,204.00,VWS V14.00,2013-04-21 14:35:00,
2013-04-21 09:40:00,57.8,51.3,29.99,SE,134,6.0,12.0,79,0.00,,---,0.00,214.00,VWS V14.00,2013-04-21 14:40:00,
2013-04-21 09:45:00,58.0,51.2,30.00,SSE,155,4.0,11.0,78,0.00,,---,0.00,236.00,VWS V14.00,2013-04-21 14:45:00,
2013-04-21 09:50:00,58.2,51.0,30.00,SE,142,11.0,14.0,77,0.00,,---,0.00,232.00,VWS V14.00,2013-04-21 14:50:00,
2013-04-21 09:55:00,58.4,51.2,30.01,SSE,148,9.0,13.0,77,0.00,,---,0.00,234.00,VWS V14.00,2013-04-21 14:55:00,
2013-04-21 10:00:00,58.7,51.5,30.00,ESE,114,7.0,13.0,77,0.00,,---,0.00,294.00,VWS V14.00,2013-04-21 15:00:00,
2013-04-21 10:05:00,58.8,51.3,30.01,SE,134,9.0,13.0,76,0.00,,---,0.00,343.00,VWS V14.00,2013-04-21 15:05:00,
2013-04-21 10:10:00,59.2,51.7,30.01,SE,133,4.0,13.0,76,0.00,,---,0.00,269.00,VWS V14.00,2013-04-21 15:10:00,
2013-04-21 10:15:00,59.5,51.2,30.01,ESE,115,6.0,13.0,74,0.00,,---,0.00,250.00,VWS V14.00,2013-04-21 15:15:00,
2013-04-21 10:20:00,59.6,51.3,30.01,SSE,151,5.0,13.0,74,0.00,,---,0.00,146.00,VWS V14.00,2013-04-21 15:20:00,
2013-04-21 10:25:00,59.6,51.0,30.02,South,169,5.0,13.0,73,0.00,,---,0.00,142.00,VWS V14.00,2013-04-21 15:25:00,
2013-04-21 10:30:00,59.5,50.8,30.02,SE,125,7.0,13.0,73,0.00,,---,0.00,135.00,VWS V14.00,2013-04-21 15:30:00,
2013-04-21 10:35:00,59.4,50.8,30.02,SE,134,8.0,13.0,73,0.00,,---,0.00,146.00,VWS V14.00,2013-04-21 15:35:00,
2013-04-21 10:40:00,59.5,50.8,30.02,SE,135,5.0,13.0,73,0.00,,---,0.00,111.00,VWS V14.00,2013-04-21 15:40:00,
2013-04-21 10:45:00,59.5,50.8,30.02,SE,144,1.0,12.0,73,0.00,,---,0.00,223.00,VWS V14.00,2013-04-21 15:45:00,
2013-04-21 10:50:00,59.7,51.0,30.02,SE,142,8.0,12.0,73,0.00,,---,0.00,218.00,VWS V14.00,2013-04-21 15:50:00,
2013-04-21 10:55:00,60.0,51.0,30.01,SSE,148,7.0,10.0,72,0.00,,---,0.00,163.00,VWS V14.00,2013-04-21 15:55:00,
2013-04-21 11:00:00,60.2,51.2,30.02,SE,139,8.0,10.0,72,0.00,,---,0.00,248.00,VWS V14.00,2013-04-21 16:00:00,
2013-04-21 11:05:00,60.3,51.2,30.01,SE,146,6.0,9.0,72,0.00,,---,0.00,262.00,VWS V14.00,2013-04-21 16:05:00,
2013-04-21 11:10:00,60.5,51.1,30.02,SSE,157,8.0,10.0,71,0.00,,---,0.00,255.00,VWS V14.00,2013-04-21 16:10:00,
2013-04-21 11:15:00,60.7,51.2,30.02,SSE,147,6.0,11.0,71,0.00,,---,0.00,206.00,VWS V14.00,2013-04-21 16:15:00,
2013-04-21 11:20:00,60.7,51.2,30.02,SSE,150,5.0,11.0,71,0.00,,---,0.00,225.00,VWS V14.00,2013-04-21 16:20:00,
2013-04-21 11:25:00,60.8,51.3,30.02,SSE,159,11.0,12.0,71,0.00,,---,0.00,283.00,VWS V14.00,2013-04-21 16:25:00,
2013-04-21 11:30:00,60.9,51.5,30.01,SE,140,8.0,12.0,71,0.00,,---,0.00,355.00,VWS V14.00,2013-04-21 16:30:00,
2013-04-21 11:35:00,61.3,51.8,30.01,SSE,152,6.0,12.0,71,0.00,,---,0.00,385.00,VWS V14.00,2013-04-21 16:35:00,
2013-04-21 11:40:00,61.7,51.8,30.02,SE,136,5.0,12.0,70,0.00,,---,0.00,401.00,VWS V14.00,2013-04-21 16:40:00,
2013-04-21 11:45:00,62.1,51.8,30.01,South,184,5.0,10.0,69,0.00,,---,0.00,443.00,VWS V14.00,2013-04-21 16:45:00,
2013-04-21 11:50:00,62.6,52.3,30.01,SE,134,8.0,11.0,69,0.00,,---,0.00,304.00,VWS V14.00,2013-04-21 16:50:00,
2013-04-21 11:55:00,62.7,51.6,30.01,SE,136,6.0,13.0,67,0.00,,---,0.00,415.00,VWS V14.00,2013-04-21 16:55:00,
2013-04-21 12:00:00,63.2,52.1,30.00,ESE,106,7.0,17.0,67,0.00,,---,0.00,415.00,VWS V14.00,2013-04-21 17:00:00,
2013-04-21 12:05:00,64.1,52.5,30.00,SSE,162,5.0,10.0,66,0.00,,---,0.00,582.00,VWS V14.00,2013-04-21 17:05:00,
2013-04-21 12:10:00,64.6,52.2,30.00,SE,144,9.0,13.0,64,0.00,,---,0.00,445.00,VWS V14.00,2013-04-21 17:10:00,
2013-04-21 12:15:00,64.8,51.5,29.99,SSE,161,5.0,13.0,62,0.00,,---,0.00,411.00,VWS V14.00,2013-04-21 17:15:00,
2013-04-21 12:20:00,64.9,51.6,29.99,SE,133,5.0,13.0,62,0.00,,---,0.00,608.00,VWS V14.00,2013-04-21 17:20:00,
2013-04-21 12:25:00,65.4,51.6,29.99,SE,134,9.0,15.0,61,0.00,,---,0.00,476.00,VWS V14.00,2013-04-21 17:25:00,
2013-04-21 12:30:00,65.4,51.6,29.99,SE,134,7.0,15.0,61,0.00,,---,0.00,522.00,VWS V14.00,2013-04-21 17:30:00,
2013-04-21 12:35:00,65.9,51.6,29.99,SSW,194,4.0,11.0,60,0.00,,---,0.00,541.00,VWS V14.00,2013-04-21 17:35:00,
2013-04-21 12:40:00,66.7,52.4,29.99,ESE,102,4.0,13.0,60,0.00,,---,0.00,1095.00,VWS V14.00,2013-04-21 17:40:00,
2013-04-21 12:45:00,66.9,52.1,29.98,SE,138,7.0,13.0,59,0.00,,---,0.00,578.00,VWS V14.00,2013-04-21 17:45:00,
2013-04-21 12:50:00,67.3,52.5,29.98,SE,128,12.0,17.0,59,0.00,,---,0.00,1102.00,VWS V14.00,2013-04-21 17:50:00,
2013-04-21 12:55:00,67.9,52.6,29.98,ESE,114,2.0,12.0,58,0.00,,---,0.00,534.00,VWS V14.00,2013-04-21 17:55:00,
2013-04-21 13:00:00,68.0,52.2,29.97,SE,144,7.0,12.0,57,0.00,,---,0.00,408.00,VWS V14.00,2013-04-21 18:00:00,
2013-04-21 13:05:00,68.3,52.0,29.97,SSE,159,4.0,10.0,56,0.00,,---,0.00,445.00,VWS V14.00,2013-04-21 18:05:00,
2013-04-21 13:10:00,68.9,52.6,29.96,SSE,163,8.0,11.0,56,0.00,,---,0.00,568.00,VWS V14.00,2013-04-21 18:10:00,
2013-04-21 13:15:00,69.7,52.8,29.96,SSE,167,8.0,11.0,55,0.00,,---,0.00,1158.00,VWS V14.00,2013-04-21 18:15:00,
2013-04-21 13:20:00,70.1,51.7,29.97,SSE,165,0.0,11.0,52,0.00,,---,0.00,425.00,VWS V14.00,2013-04-21 18:20:00,
2013-04-21 13:25:00,70.5,52.6,29.96,SSW,203,1.0,11.0,53,0.00,,---,0.00,1259.00,VWS V14.00,2013-04-21 18:25:00,
2013-04-21 13:30:00,70.9,52.4,29.96,SSE,151,5.0,12.0,52,0.00,,---,0.00,1109.00,VWS V14.00,2013-04-21 18:30:00,
2013-04-21 13:35:00,71.2,52.2,29.95,SSE,153,8.0,10.0,51,0.00,,---,0.00,1253.00,VWS V14.00,2013-04-21 18:35:00,
2013-04-21 13:40:00,71.7,52.1,29.95,SSW,192,6.0,10.0,50,0.00,,---,0.00,1157.00,VWS V14.00,2013-04-21 18:40:00,
2013-04-21 13:45:00,72.4,53.3,29.95,SSE,149,6.0,11.0,51,0.00,,---,0.00,1179.00,VWS V14.00,2013-04-21 18:45:00,
2013-04-21 13:50:00,72.8,52.5,29.94,SSE,159,4.0,13.0,49,0.00,,---,0.00,1183.00,VWS V14.00,2013-04-21 18:50:00,
2013-04-21 13:55:00,73.3,52.5,29.94,SE,134,7.0,12.0,48,0.00,,---,0.00,1148.00,VWS V14.00,2013-04-21 18:55:00,
2013-04-21 14:00:00,73.4,53.1,29.94,SSE,150,7.0,12.0,49,0.00,,---,0.00,1129.00,VWS V14.00,2013-04-21 19:00:00,
2013-04-21 14:05:00,73.1,52.8,29.94,SE,138,7.0,17.0,49,0.00,,---,0.00,1157.00,VWS V14.00,2013-04-21 19:05:00,
2013-04-21 14:10:00,73.4,52.5,29.93,WSW,246,2.0,17.0,48,0.00,,---,0.00,1111.00,VWS V14.00,2013-04-21 19:10:00,
2013-04-21 14:15:00,73.8,52.3,29.92,SE,140,5.0,8.0,47,0.00,,---,0.00,1114.00,VWS V14.00,2013-04-21 19:15:00,
2013-04-21 14:20:00,74.2,52.1,29.92,SSW,207,5.0,11.0,46,0.00,,---,0.00,1060.00,VWS V14.00,2013-04-21 19:20:00,
2013-04-21 14:25:00,74.3,52.8,29.92,SE,146,6.0,12.0,47,0.00,,---,0.00,1044.00,VWS V14.00,2013-04-21 19:25:00,
2013-04-21 14:30:00,74.4,52.9,29.92,SW,227,11.0,15.0,47,0.00,,---,0.00,1102.00,VWS V14.00,2013-04-21 19:30:00,
2013-04-21 14:35:00,74.4,52.9,29.92,SSW,207,4.0,11.0,47,0.00,,---,0.00,1042.00,VWS V14.00,2013-04-21 19:35:00,
2013-04-21 14:40:00,74.4,52.3,29.91,SE,128,9.0,14.0,46,0.00,,---,0.00,976.00,VWS V14.00,2013-04-21 19:40:00,
2013-04-21 14:45:00,74.5,53.0,29.91,WSW,256,8.0,10.0,47,0.00,,---,0.00,976.00,VWS V14.00,2013-04-21 19:45:00,
2013-04-21 14:50:00,75.1,53.5,29.90,WSW,248,3.0,11.0,47,0.00,,---,0.00,997.00,VWS V14.00,2013-04-21 19:50:00,
2013-04-21 14:55:00,75.5,53.3,29.90,South,180,8.0,11.0,46,0.00,,---,0.00,946.00,VWS V14.00,2013-04-21 19:55:00,
2013-04-21 15:00:00,75.7,52.9,29.90,SSE,148,5.0,11.0,45,0.00,,---,0.00,942.00,VWS V14.00,2013-04-21 20:00:00,
2013-04-21 15:05:00,75.8,52.4,29.90,South,189,1.0,10.0,44,0.00,,---,0.00,928.00,VWS V14.00,2013-04-21 20:05:00,
2013-04-21 15:10:00,76.2,52.7,29.90,WSW,251,5.0,12.0,44,0.00,,---,0.00,916.00,VWS V14.00,2013-04-21 20:10:00,
2013-04-21 15:15:00,76.2,53.3,29.89,West,264,10.0,11.0,45,0.00,,---,0.00,935.00,VWS V14.00,2013-04-21 20:15:00,
2013-04-21 15:20:00,76.2,52.7,29.89,SSE,159,0.0,11.0,44,0.00,,---,0.00,909.00,VWS V14.00,2013-04-21 20:20:00,
2013-04-21 15:25:00,76.4,52.9,29.89,SSE,160,4.0,13.0,44,0.00,,---,0.00,893.00,VWS V14.00,2013-04-21 20:25:00,
2013-04-21 15:30:00,76.2,52.7,29.89,SSE,164,7.0,13.0,44,0.00,,---,0.00,877.00,VWS V14.00,2013-04-21 20:30:00,
2013-04-21 15:35:00,75.7,52.9,29.88,SSE,167,8.0,14.0,45,0.00,,---,0.00,895.00,VWS V14.00,2013-04-21 20:35:00,
2013-04-21 15:40:00,75.3,53.1,29.88,ESE,121,7.0,14.0,46,0.00,,---,0.00,875.00,VWS V14.00,2013-04-21 20:40:00,
2013-04-21 15:45:00,74.8,52.7,29.88,SSE,159,4.0,14.0,46,0.00,,---,0.00,847.00,VWS V14.00,2013-04-21 20:45:00,
2013-04-21 15:50:00,74.8,53.2,29.87,SSW,199,4.0,14.0,47,0.00,,---,0.00,831.00,VWS V14.00,2013-04-21 20:50:00,
2013-04-21 15:55:00,75.3,53.1,29.87,South,190,10.0,12.0,46,0.00,,---,0.00,821.00,VWS V14.00,2013-04-21 20:55:00,
2013-04-21 16:00:00,75.6,53.4,29.87,SSE,153,12.0,13.0,46,0.00,,---,0.00,809.00,VWS V14.00,2013-04-21 21:00:00,
2013-04-21 16:05:00,75.4,53.2,29.87,SE,128,7.0,16.0,46,0.00,,---,0.00,807.00,VWS V14.00,2013-04-21 21:05:00,
2013-04-21 16:10:00,75.3,53.1,29.86,ESE,112,6.0,16.0,46,0.00,,---,0.00,786.00,VWS V14.00,2013-04-21 21:10:00,
2013-04-21 16:15:00,75.5,52.7,29.87,SSE,150,5.0,10.0,45,0.00,,---,0.00,782.00,VWS V14.00,2013-04-21 21:15:00,
2013-04-21 16:20:00,76.0,53.2,29.86,South,187,3.0,10.0,45,0.00,,---,0.00,763.00,VWS V14.00,2013-04-21 21:20:00,
2013-04-21 16:25:00,76.6,53.7,29.86,SSE,163,7.0,8.0,45,0.00,,---,0.00,749.00,VWS V14.00,2013-04-21 21:25:00,
2013-04-21 16:30:00,76.7,53.2,29.86,SSE,154,4.0,9.0,44,0.00,,---,0.00,745.00,VWS V14.00,2013-04-21 21:30:00,
2013-04-21 16:35:00,76.7,53.2,29.85,SE,136,6.0,10.0,44,0.00,,---,0.00,738.00,VWS V14.00,2013-04-21 21:35:00,
2013-04-21 16:40:00,76.6,53.1,29.85,SSE,155,6.0,12.0,44,0.00,,---,0.00,705.00,VWS V14.00,2013-04-21 21:40:00,
2013-04-21 16:45:00,76.6,53.1,29.85,SE,139,4.0,10.0,44,0.00,,---,0.00,705.00,VWS V14.00,2013-04-21 21:45:00,
2013-04-21 16:50:00,76.5,53.6,29.85,SE,132,15.0,15.0,45,0.00,,---,0.00,675.00,VWS V14.00,2013-04-21 21:50:00,
2013-04-21 16:55:00,76.4,53.5,29.85,SE,143,7.0,9.0,45,0.00,,---,0.00,656.00,VWS V14.00,2013-04-21 21:55:00,
2013-04-21 17:00:00,76.6,53.7,29.84,SE,132,5.0,12.0,45,0.00,,---,0.00,642.00,VWS V14.00,2013-04-21 22:00:00,
2013-04-21 17:05:00,76.5,53.0,29.85,SSE,148,6.0,10.0,44,0.00,,---,0.00,629.00,VWS V14.00,2013-04-21 22:05:00,
2013-04-21 17:10:00,76.5,53.0,29.84,ESE,116,8.0,11.0,44,0.00,,---,0.00,605.00,VWS V14.00,2013-04-21 22:10:00,
2013-04-21 17:15:00,76.8,52.6,29.85,SE,126,4.0,9.0,43,0.00,,---,0.00,592.00,VWS V14.00,2013-04-21 22:15:00,
2013-04-21 17:20:00,77.3,53.1,29.84,SE,134,2.0,9.0,43,0.00,,---,0.00,571.00,VWS V14.00,2013-04-21 22:20:00,
2013-04-21 17:25:00,77.8,52.9,29.84,SE,134,1.0,6.0,42,0.00,,---,0.00,573.00,VWS V14.00,2013-04-21 22:25:00,
2013-04-21 17:30:00,77.7,52.8,29.84,SE,138,4.0,10.0,42,0.00,,---,0.00,158.00,VWS V14.00,2013-04-21 22:30:00,
2013-04-21 17:35:00,77.2,53.0,29.84,SE,138,5.0,6.0,43,0.00,,---,0.00,533.00,VWS V14.00,2013-04-21 22:35:00,
2013-04-21 17:40:00,77.2,53.6,29.84,SE,138,5.0,6.0,44,0.00,,---,0.00,510.00,VWS V14.00,2013-04-21 22:40:00,
2013-04-21 17:45:00,77.2,53.6,29.84,SE,127,5.0,9.0,44,0.00,,---,0.00,512.00,VWS V14.00,2013-04-21 22:45:00,
2013-04-21 17:50:00,77.2,53.6,29.84,SE,133,8.0,11.0,44,0.00,,---,0.00,490.00,VWS V14.00,2013-04-21 22:50:00,
2013-04-21 17:55:00,77.1,53.5,29.84,SSE,159,6.0,12.0,44,0.00,,---,0.00,461.00,VWS V14.00,2013-04-21 22:55:00,
2013-04-21 18:00:00,77.0,53.4,29.84,SSE,155,9.0,12.0,44,0.00,,---,0.00,445.00,VWS V14.00,2013-04-21 23:00:00,
2013-04-21 18:05:00,76.9,53.3,29.84,SSE,152,5.0,10.0,44,0.00,,---,0.00,422.00,VWS V14.00,2013-04-21 23:05:00,
2013-04-21 18:10:00,77.1,53.5,29.84,SSE,147,5.0,10.0,44,0.00,,---,0.00,404.00,VWS V14.00,2013-04-21 23:10:00,
2013-04-21 18:15:00,77.1,52.9,29.84,SE,138,5.0,10.0,43,0.00,,---,0.00,387.00,VWS V14.00,2013-04-21 23:15:00,
2013-04-21 18:20:00,76.8,53.3,29.84,SE,138,6.0,10.0,44,0.00,,---,0.00,100.00,VWS V14.00,2013-04-21 23:20:00,
2013-04-21 18:25:00,76.3,52.8,29.84,SE,136,6.0,8.0,44,0.00,,---,0.00,163.00,VWS V14.00,2013-04-21 23:25:00,
2013-04-21 18:30:00,76.2,52.7,29.84,SE,140,5.0,9.0,44,0.00,,---,0.00,325.00,VWS V14.00,2013-04-21 23:30:00,
2013-04-21 18:35:00,76.3,52.8,29.84,SE,140,6.0,7.0,44,0.00,,---,0.00,299.00,VWS V14.00,2013-04-21 23:35:00,
2013-04-21 18:40:00,76.5,52.4,29.84,SE,140,6.0,7.0,43,0.00,,---,0.00,279.00,VWS V14.00,2013-04-21 23:40:00,
2013-04-21 18:45:00,76.5,53.0,29.84,SE,139,1.0,11.0,44,0.00,,---,0.00,262.00,VWS V14.00,2013-04-21 23:45:00,
2013-04-21 18:50:00,76.6,53.1,29.84,SSE,153,8.0,11.0,44,0.00,,---,0.00,244.00,VWS V14.00,2013-04-21 23:50:00,
2013-04-21 18:55:00,76.5,53.0,29.84,SSE,153,6.0,6.0,44,0.00,,---,0.00,223.00,VWS V14.00,2013-04-21 23:55:00,
2013-04-21 19:00:00,76.4,52.9,29.84,SSE,153,2.0,7.0,44,0.00,,---,0.00,207.00,VWS V14.00,2013-04-22 00:00:00,
2013-04-21 19:05:00,76.4,53.5,29.84,SSE,153,4.0,8.0,45,0.00,,---,0.00,185.00,VWS V14.00,2013-04-22 00:05:00,
2013-04-21 19:10:00,76.1,52.6,29.84,SSE,152,2.0,12.0,44,0.00,,---,0.00,155.00,VWS V14.00,2013-04-22 00:10:00,
2013-04-21 19:15:00,75.9,53.1,29.84,SSE,148,5.0,10.0,45,0.00,,---,0.00,134.00,VWS V14.00,2013-04-22 00:15:00,
2013-04-21 19:20:00,75.7,52.9,29.84,SSE,149,6.0,10.0,45,0.00,,---,0.00,120.00,VWS V14.00,2013-04-22 00:20:00,
2013-04-21 19:24:00,75.5,53.3,29.84,SSE,148,4.0,9.0,46,0.00,,---,0.00,100.00,VWS V14.00,2013-04-22 00:24:00,
2013-04-21 19:29:00,75.2,53.0,29.84,SE,146,7.0,10.0,46,0.00,,---,0.00,81.00,VWS V14.00,2013-04-22 00:29:00,
2013-04-21 19:34:00,75.0,53.4,29.84,SE,146,2.0,6.0,47,0.00,,---,0.00,65.00,VWS V14.00,2013-04-22 00:34:00,
2013-04-21 19:39:00,74.8,53.2,29.85,SE,146,1.0,10.0,47,0.00,,---,0.00,51.00,VWS V14.00,2013-04-22 00:39:00,
2013-04-21 19:44:00,74.5,53.5,29.85,SE,146,5.0,8.0,48,0.00,,---,0.00,37.00,VWS V14.00,2013-04-22 00:44:00,
2013-04-21 19:49:00,74.1,53.2,29.85,SE,145,5.0,9.0,48,0.00,,---,0.00,28.00,VWS V14.00,2013-04-22 00:49:00,
2013-04-21 19:54:00,73.7,53.4,29.85,SE,144,5.0,9.0,49,0.00,,---,0.00,19.00,VWS V14.00,2013-04-22 00:54:00,
2013-04-21 19:59:00,73.4,53.1,29.85,SE,142,4.0,11.0,49,0.00,,---,0.00,12.00,VWS V14.00,2013-04-22 00:59:00,
2013-04-21 20:04:00,73.0,53.3,29.85,SE,142,5.0,6.0,50,0.00,,---,0.00,7.00,VWS V14.00,2013-04-22 01:04:00,
2013-04-21 20:09:00,72.6,52.9,29.85,SE,142,5.0,8.0,50,0.00,,---,0.00,0.00,VWS V14.00,2013-04-22 01:09:00,
2013-04-21 20:14:00,72.2,53.1,29.85,SE,142,4.0,6.0,51,0.00,,---,0.00,0.00,VWS V14.00,2013-04-22 01:14:00,
2013-04-21 20:19:00,71.9,53.3,29.85,SE,142,2.0,7.0,52,0.00,,---,0.00,0.00,VWS V14.00,2013-04-22 01:19:00,
2013-04-21 20:24:00,71.6,53.1,29.86,SE,142,4.0,6.0,52,0.00,,---,0.00,0.00,VWS V14.00,2013-04-22 01:24:00,
2013-04-21 20:29:00,71.5,53.0,29.86,SE,142,4.0,6.0,52,0.00,,---,0.00,0.00,VWS V14.00,2013-04-22 01:29:00,
2013-04-21 20:34:00,71.3,52.8,29.86,SE,142,4.0,6.0,52,0.00,,---,0.00,0.00,VWS V14.00,2013-04-22 01:34:00,
2013-04-21 20:39:00,71.0,53.0,29.86,SE,142,2.0,6.0,53,0.00,,---,0.00,0.00,VWS V14.00,2013-04-22 01:39:00,
2013-04-21 20:44:00,70.8,52.8,29.86,SE,142,0.0,5.0,53,0.00,,---,0.00,0.00,VWS V14.00,2013-04-22 01:44:00,
2013-04-21 20:49:00,70.5,53.1,29.87,SE,142,5.0,7.0,54,0.00,,---,0.00,0.00,VWS V14.00,2013-04-22 01:49:00,
2013-04-21 20:54:00,70.3,52.9,29.87,SE,142,5.0,6.0,54,0.00,,---,0.00,0.00,VWS V14.00,2013-04-22 01:54:00,
2013-04-21 20:59:00,70.1,52.7,29.87,SE,142,1.0,6.0,54,0.00,,---,0.00,0.00,VWS V14.00,2013-04-22 01:59:00,
2013-04-21 21:04:00,69.9,53.0,29.87,SE,142,4.0,7.0,55,0.00,,---,0.00,0.00,VWS V14.00,2013-04-22 02:04:00,
2013-04-21 21:09:00,69.9,53.0,29.88,SE,141,6.0,9.0,55,0.00,,---,0.00,0.00,VWS V14.00,2013-04-22 02:09:00,
2013-04-21 21:14:00,69.7,52.8,29.88,SE,141,2.0,8.0,55,0.00,,---,0.00,0.00,VWS V14.00,2013-04-22 02:14:00,
2013-04-21 21:19:00,69.6,52.7,29.88,SE,141,6.0,8.0,55,0.00,,---,0.00,0.00,VWS V14.00,2013-04-22 02:19:00,
2013-04-21 21:24:00,69.5,53.1,29.88,SE,141,4.0,7.0,56,0.00,,---,0.00,0.00,VWS V14.00,2013-04-22 02:24:00,
2013-04-21 21:29:00,69.4,53.0,29.89,SE,141,6.0,7.0,56,0.00,,---,0.00,0.00,VWS V14.00,2013-04-22 02:29:00,
2013-04-21 21:34:00,69.3,53.0,29.89,SE,140,4.0,8.0,56,0.00,,---,0.00,0.00,VWS V14.00,2013-04-22 02:34:00,
2013-04-21 21:39:00,69.2,52.8,29.89,SE,140,5.0,8.0,56,0.00,,---,0.00,0.00,VWS V14.00,2013-04-22 02:39:00,
2013-04-21 21:44:00,69.1,52.8,29.90,SE,140,5.0,8.0,56,0.00,,---,0.00,0.00,VWS V14.00,2013-04-22 02:44:00,
2013-04-21 21:49:00,68.9,52.6,29.90,SE,140,5.0,8.0,56,0.00,,---,0.00,0.00,VWS V14.00,2013-04-22 02:49:00,
2013-04-21 21:54:00,68.7,52.9,29.90,SE,138,6.0,8.0,57,0.00,,---,0.00,0.00,VWS V14.00,2013-04-22 02:54:00,
2013-04-21 21:59:00,68.5,52.7,29.90,SE,138,7.0,8.0,57,0.00,,---,0.00,0.00,VWS V14.00,2013-04-22 02:59:00,
2013-04-21 22:04:00,68.3,53.0,29.90,SE,138,4.0,8.0,58,0.00,,---,0.00,0.00,VWS V14.00,2013-04-22 03:04:00,
2013-04-21 22:09:00,68.1,52.8,29.90,SE,138,7.0,9.0,58,0.00,,---,0.00,0.00,VWS V14.00,2013-04-22 03:09:00,
2013-04-21 22:14:00,67.9,53.1,29.90,SE,137,5.0,9.0,59,0.00,,---,0.00,0.00,VWS V14.00,2013-04-22 03:14:00,
2013-04-21 22:19:00,67.5,52.7,29.90,SE,134,7.0,9.0,59,0.00,,---,0.00,0.00,VWS V14.00,2013-04-22 03:19:00,
2013-04-21 22:24:00,67.2,52.9,29.90,SE,127,9.0,13.0,60,0.00,,---,0.00,0.00,VWS V14.00,2013-04-22 03:24:00,
2013-04-21 22:29:00,66.9,53.0,29.90,SE,125,7.0,15.0,61,0.00,,---,0.00,0.00,VWS V14.00,2013-04-22 03:29:00,
2013-04-21 22:34:00,66.7,53.3,29.91,ESE,121,13.0,13.0,62,0.00,,---,0.00,0.00,VWS V14.00,2013-04-22 03:34:00,
2013-04-21 22:39:00,66.4,53.4,29.91,ESE,123,7.0,15.0,63,0.00,,---,0.00,0.00,VWS V14.00,2013-04-22 03:39:00,
2013-04-21 22:44:00,66.2,53.2,29.91,ESE,121,5.0,9.0,63,0.00,,---,0.00,0.00,VWS V14.00,2013-04-22 03:44:00,
2013-04-21 22:49:00,65.9,53.4,29.90,SE,126,8.0,16.0,64,0.00,,---,0.00,0.00,VWS V14.00,2013-04-22 03:49:00,
2013-04-21 22:54:00,65.7,53.2,29.91,ESE,123,7.0,12.0,64,0.00,,---,0.00,0.00,VWS V14.00,2013-04-22 03:54:00,
2013-04-21 22:59:00,65.5,53.4,29.91,ESE,122,6.0,14.0,65,0.00,,---,0.00,0.00,VWS V14.00,2013-04-22 03:59:00,
2013-04-21 23:01:00,65.4,53.3,29.90,ESE,116,16.0,16.0,65,0.00,,---,0.00,0.00,VWS V14.00,2013-04-22 04:01:00,
2013-04-21 23:06:00,65.2,53.6,29.90,SE,126,6.0,14.0,66,0.00,,---,0.00,0.00,VWS V14.00,2013-04-22 04:06:00,
2013-04-21 23:11:00,65.0,53.4,29.90,ESE,120,8.0,14.0,66,0.00,,---,0.00,0.00,VWS V14.00,2013-04-22 04:11:00,
2013-04-21 23:16:00,64.8,53.6,29.91,ESE,123,4.0,12.0,67,0.00,,---,0.00,0.00,VWS V14.00,2013-04-22 04:16:00,
2013-04-21 23:21:00,64.6,53.4,29.91,ESE,123,6.0,14.0,67,0.00,,---,0.00,0.00,VWS V14.00,2013-04-22 04:21:00,
2013-04-21 23:26:00,64.4,53.6,29.91,SE,124,5.0,13.0,68,0.00,,---,0.00,0.00,VWS V14.00,2013-04-22 04:26:00,
2013-04-21 23:31:00,64.3,53.5,29.91,ESE,119,6.0,18.0,68,0.00,,---,0.00,0.00,VWS V14.00,2013-04-22 04:31:00,
2013-04-21 23:36:00,64.1,53.7,29.92,ESE,110,11.0,17.0,69,0.00,,---,0.00,0.00,VWS V14.00,2013-04-22 04:36:00,
2013-04-21 23:41:00,64.0,54.0,29.91,SE,136,14.0,17.0,70,0.00,,---,0.00,0.00,VWS V14.00,2013-04-22 04:41:00,
2013-04-21 23:46:00,63.8,54.2,29.91,ESE,117,7.0,13.0,71,0.00,,---,0.00,0.00,VWS V14.00,2013-04-22 04:46:00,
2013-04-21 23:51:00,63.7,54.5,29.91,SSE,150,4.0,15.0,72,0.00,,---,0.00,0.00,VWS V14.00,2013-04-22 04:51:00,
2013-04-21 23:56:00,63.7,54.5,29.91,SE,136,12.0,17.0,72,0.00,,---,0.00,0.00,VWS V14.00,2013-04-22 04:56:00,